Location: New Plymouth
(39.0670°S, 174.0830°E)
Time: 23:50:35
(UTC+13:00)

Meteor 1-25 Rocket - Pass Details

Date: 24 January 2019
Orbit: 836 x 892 km, 81.2° (Epoch: 17 October)

Event Time Altitude Azimuth Distance (km) Brightness Sun altitude
Rises 23:12:20 0° 189° (S) 3,522 8.4 -22.8°
Reaches altitude 10° 23:14:48 10° 187° (S) 2,581 7.5 -23.0°
Maximum altitude 23:20:42 80° 100° (E) 918 4.2 -23.7°
Enters shadow 23:22:04 55° 24° (NNE) 1,072 4.3 -23.9°
